Location: Hermaringen
(48.5952°N, 10.2585°E)
Time: 05:49:25
(UTC+00:00)

Transit 2A - Pass Details

Date: 23 February 2026
Orbit: 590 x 954 km, 66.7° (Epoch: 14 March)

Event Time Altitude Azimuth Distance (km) Brightness Sun altitude
Rises 18:52:40 0° 324° (NW) 3,583 10.1 -20.4°
Reaches altitude 10° 18:55:18 10° 325° (NW) 2,602 9.3 -20.9°
Maximum altitude 19:01:23 82° 54° (NE) 869 6.1 -21.9°
Enters shadow 19:03:24 42° 137° (SE) 1,174 6.5 -22.2°
